Home > Weather > Merida > Past weeks

Flag for Mexico Past Weather in Merida, Yucatán, Mexico — Yesterday and Last 2 Weeks

Now
75 °F

Partly cloudy.


Feels Like: 74 °F
Forecast: 76 / 97 °F
Wind: No wind

Location: Aerop. Internacional Merida - Yuc

Current Time: Jul 24, 2016 at 5:51:37 AM

Latest Report: Jul 24, 2016 at 4:47 AM


Visibility: 7 mi

Pressure: 29.96 "Hg

Humidity: 94%

Dew Point: 73 °F

Location of MeridaLocation

Past Weather in Merida — Graph

°F

Merida Temperature Yesterday

Maximum temperature yesterday: 97 °F (at 2:51 PM)
Minimum temperature yesterday: 75 °F (at 12:45 AM)
Average temperature yesterday: 81 °F

High & Low Weather Summary for the Past Weeks

 TemperatureHumidityPressure
High99 °F (Jul 17, 2:46 PM)94% (Jul 9, 4:45 AM)30.09 "Hg (Jul 9, 4:45 AM)
Low73 °F (Jul 19, 5:45 AM)34% (Jul 13, 4:43 PM)29.89 "Hg (Jul 16, 5:22 PM)
Average84 °F73%30.00 "Hg
* Reported Jul 9 4:45 AM — Jul 24 4:47 AM, Merida, Weather by CustomWeather, © 2016

Note: Actual official high and low records may vary slightly from our data, if they occured in-between our weather recording intervals... More about our weather records

Advertising

Merida Weather History for the Previous 24 Hours

Scroll right to see more
 ConditionsComfort  
Time TempWeatherWind HumidityBarometerVisibility
4:47 AM
Sun, Jul 24
75 °FPartly cloudy.No wind94%29.96 "Hg7 mi
3:48 AM75 °FPartly cloudy.No wind94%29.96 "Hg7 mi
2:47 AM75 °FPartly cloudy.No wind94%29.96 "Hg7 mi
1:46 AM75 °FPartly cloudy.6 mph94%29.97 "Hg7 mi
11:45 PM
Sat, Jul 23
75 °FPartly cloudy.7 mph94%29.98 "Hg7 mi
10:45 PM77 °FPassing clouds.17 mph89%30.05 "Hg7 mi
7:46 PM77 °FPartly sunny.5 mph89%30.00 "Hg7 mi
6:53 PM77 °FBroken clouds.5 mph89%29.96 "Hg6 mi
6:27 PM77 °FPartly sunny.7 mph89%29.95 "Hg6 mi
5:49 PM77 °FThunderstorms. Partly sunny.5 mph83%29.96 "Hg7 mi
4:45 PM84 °FThunderstorms. Broken clouds.23 mph70%29.96 "Hg6 mi
3:51 PM81 °FPartly sunny.12 mph89%29.94 "Hg6 mi
3:36 PM84 °FRain. Partly sunny.9 mph74%29.94 "Hg3 mi
2:51 PM97 °FPartly sunny.7 mph44%29.94 "Hg7 mi
1:45 PM93 °FPartly sunny.9 mph49%29.97 "Hg7 mi
12:45 PM91 °FPartly sunny.6 mph59%30.00 "Hg7 mi
11:45 AM91 °FPartly sunny.12 mph59%30.01 "Hg7 mi
10:45 AM90 °FPartly sunny.9 mph67%30.00 "Hg7 mi
9:45 AM84 °FPartly sunny.12 mph79%29.91 "Hg7 mi
8:45 AM82 °FPassing clouds.No wind79%29.97 "Hg7 mi
7:45 AM79 °FPassing clouds.3 mph84%29.96 "Hg7 mi
6:45 AM75 °FPassing clouds.No wind94%29.96 "Hg6 mi
5:45 AM75 °FClear.3 mph89%29.96 "Hg6 mi
Weather by CustomWeather, © 2016

See weather overviewHow to use our weather pages